AAL4776 KDCA-KLGA

Flight info

Callsign AAL4776
Flight time N/A
Altitude 25000
Route DOCTR5 AGARD SPEAK PROUD2
Aircraft B738/M-SDE2E3FGHIRWXY/LB1

Departure

Time 2026-05-06 01:21
Airport Ronald Reagan Washington National Airport (KDCA)

Arrival

Time N/A
Airport LaGuardia Airport (KLGA)
Time Latitude Longitude Altitude Speed Heading
2026-05-06 00:42 38.85477 -77.04146 23 ft 0 kts 170°
2026-05-06 01:05 38.85480 -77.04146 23 ft 2 kts 169°
2026-05-06 01:06 38.85496 -77.04152 23 ft 3 kts 142°
2026-05-06 01:06 38.85508 -77.04170 30 ft 3 kts 107°
2026-05-06 01:06 38.85510 -77.04193 29 ft 2 kts 75°
2026-05-06 01:06 38.85510 -77.04195 29 ft 2 kts 76°
2026-05-06 01:07 38.85505 -77.04186 20 ft 3 kts 127°
2026-05-06 01:07 38.85503 -77.04185 20 ft 0 kts 133°
2026-05-06 01:07 38.85503 -77.04184 20 ft 0 kts 133°
2026-05-06 01:08 38.85515 -77.04199 25 ft 0 kts 149°
2026-05-06 01:08 38.85513 -77.04181 26 ft 0 kts 71°
2026-05-06 01:11 38.85515 -77.04173 23 ft 5 kts 70°
2026-05-06 01:11 38.85541 -77.04081 23 ft 17 kts 62°
2026-05-06 01:11 38.85649 -77.04042 26 ft 0 kts 356°
2026-05-06 01:12 38.85653 -77.04043 24 ft 2 kts 356°
2026-05-06 01:13 38.85695 -77.04047 25 ft 10 kts 355°
2026-05-06 01:13 38.85797 -77.04057 26 ft 20 kts 358°
2026-05-06 01:13 38.85932 -77.04014 26 ft 20 kts 69°
2026-05-06 01:13 38.85958 -77.03977 25 ft 0 kts 28°
2026-05-06 01:14 38.85989 -77.03961 25 ft 9 kts 19°
2026-05-06 01:14 38.85995 -77.03959 25 ft 0 kts 18°
2026-05-06 01:19 38.86016 -77.03951 24 ft 9 kts 16°
2026-05-06 01:19 38.86065 -77.03876 24 ft 15 kts 144°
2026-05-06 01:19 38.86032 -77.03864 23 ft 0 kts 177°
2026-05-06 01:20 38.86030 -77.03864 23 ft 3 kts 176°
2026-05-06 01:20 38.85791 -77.03841 26 ft 71 kts 176°
2026-05-06 01:20 38.85063 -77.03768 26 ft 136 kts 176°
2026-05-06 01:20 38.84024 -77.03646 396 ft 160 kts 176°
2026-05-06 01:21 38.82868 -77.03465 1050 ft 170 kts 172°
2026-05-06 01:21 38.81734 -77.03218 2000 ft 172 kts 177°
2026-05-06 01:21 38.80446 -77.02951 2265 ft 201 kts 176°
2026-05-06 01:21 38.79013 -77.02648 2708 ft 214 kts 177°
2026-05-06 01:22 38.77530 -77.02283 3395 ft 220 kts 169°
2026-05-06 01:22 38.76187 -77.01185 4089 ft 243 kts 141°
2026-05-06 01:22 38.75278 -76.99206 4616 ft 280 kts 111°
2026-05-06 01:22 38.75111 -76.96648 5411 ft 294 kts 96°
2026-05-06 01:23 38.75172 -76.93987 6305 ft 303 kts 85°
2026-05-06 01:23 38.76002 -76.91482 7148 ft 312 kts 52°
2026-05-06 01:23 38.77620 -76.89652 8039 ft 311 kts 30°
2026-05-06 01:23 38.79480 -76.88237 8954 ft 311 kts 27°
2026-05-06 01:24 38.81358 -76.86847 9911 ft 311 kts 27°
2026-05-06 01:24 38.83243 -76.85422 10537 ft 322 kts 27°
2026-05-06 01:24 38.85236 -76.83873 10742 ft 348 kts 32°
2026-05-06 01:24 38.86972 -76.81595 10903 ft 376 kts 58°
2026-05-06 01:25 38.88183 -76.78535 11274 ft 391 kts 65°
2026-05-06 01:25 38.89338 -76.75332 11920 ft 397 kts 65°
2026-05-06 01:25 38.90503 -76.72098 12657 ft 400 kts 65°
2026-05-06 01:25 38.91694 -76.68851 13366 ft 405 kts 64°
2026-05-06 01:26 38.92916 -76.65571 14039 ft 409 kts 64°
2026-05-06 01:26 38.94157 -76.62259 14646 ft 414 kts 64°
2026-05-06 01:26 38.95371 -76.58885 15257 ft 418 kts 67°
2026-05-06 01:26 38.96496 -76.55421 15865 ft 423 kts 68°
2026-05-06 01:27 38.97603 -76.51903 16460 ft 427 kts 69°
2026-05-06 01:27 38.98737 -76.48342 17069 ft 430 kts 68°
2026-05-06 01:27 38.99874 -76.44825 17699 ft 433 kts 68°
2026-05-06 01:27 39.01006 -76.41195 18280 ft 437 kts 73°
2026-05-06 01:28 39.01622 -76.37348 18648 ft 442 kts 85°
2026-05-06 01:28 39.01964 -76.33393 19173 ft 445 kts 86°
2026-05-06 01:28 39.02277 -76.29423 19718 ft 448 kts 86°
2026-05-06 01:28 39.02614 -76.25420 20236 ft 451 kts 85°
2026-05-06 01:29 39.02983 -76.21396 20731 ft 455 kts 85°
2026-05-06 01:29 39.03372 -76.17390 20931 ft 459 kts 85°
2026-05-06 01:29 39.03776 -76.13325 20906 ft 457 kts 85°
2026-05-06 01:29 39.04178 -76.09280 20925 ft 453 kts 85°
2026-05-06 01:30 39.04547 -76.05251 20937 ft 454 kts 87°
2026-05-06 01:30 39.04764 -76.01215 20941 ft 454 kts 90°
2026-05-06 01:30 39.04906 -75.97189 20943 ft 455 kts 90°